Year,Month,Day,Hour,Minute,Value (Times are PST for temperature in C)
2019,05,27,00,00,13.90
2019,05,27,00,01,13.90
2019,05,27,00,02,13.90
2019,05,27,00,03,13.90
2019,05,27,00,04,13.90
2019,05,27,00,05,13.90
2019,05,27,00,06,13.90
2019,05,27,00,07,13.90
2019,05,27,00,08,13.90
2019,05,27,00,09,13.90
2019,05,27,00,10,13.90
2019,05,27,00,11,13.90
2019,05,27,00,12,13.90
2019,05,27,00,13,13.90
2019,05,27,00,14,13.90
2019,05,27,00,15,14.00
2019,05,27,00,16,14.00
2019,05,27,00,17,14.00
2019,05,27,00,18,14.00
2019,05,27,00,19,14.00
2019,05,27,00,20,14.00
2019,05,27,00,21,14.00
2019,05,27,00,22,14.00
2019,05,27,00,23,14.00
2019,05,27,00,24,14.00
2019,05,27,00,25,13.90
2019,05,27,00,26,13.90
2019,05,27,00,27,13.90
2019,05,27,00,28,13.90
2019,05,27,00,29,13.90
2019,05,27,00,30,13.90
2019,05,27,00,31,13.80
2019,05,27,00,32,13.80
2019,05,27,00,33,13.80
2019,05,27,00,34,13.80
2019,05,27,00,35,13.80
2019,05,27,00,36,13.90
2019,05,27,00,37,13.90
2019,05,27,00,38,13.90
2019,05,27,00,39,13.90
2019,05,27,00,40,13.90
2019,05,27,00,41,13.90
2019,05,27,00,42,13.90
2019,05,27,00,43,13.90
2019,05,27,00,44,13.90
2019,05,27,00,45,13.90
2019,05,27,00,46,13.90
2019,05,27,00,47,13.80
2019,05,27,00,48,13.80
2019,05,27,00,49,13.80
2019,05,27,00,50,13.70
2019,05,27,00,51,13.70
2019,05,27,00,52,13.70
2019,05,27,00,53,13.60
2019,05,27,00,54,13.60
2019,05,27,00,55,13.60
2019,05,27,00,56,13.60
2019,05,27,00,57,13.50
2019,05,27,00,58,13.50
2019,05,27,00,59,13.50
2019,05,27,01,00,13.50
2019,05,27,01,01,13.40
2019,05,27,01,02,13.40
2019,05,27,01,03,13.40
2019,05,27,01,04,13.30
2019,05,27,01,05,13.30
2019,05,27,01,06,13.30
2019,05,27,01,07,13.30
2019,05,27,01,08,13.30
2019,05,27,01,09,13.30
2019,05,27,01,10,13.30
2019,05,27,01,11,13.30
2019,05,27,01,12,13.30
2019,05,27,01,13,13.30
2019,05,27,01,14,13.30
2019,05,27,01,15,13.40
2019,05,27,01,16,13.40
2019,05,27,01,17,13.40
2019,05,27,01,18,13.40
2019,05,27,01,19,13.40
2019,05,27,01,20,13.40
2019,05,27,01,21,13.30
2019,05,27,01,22,13.30
2019,05,27,01,23,13.30
2019,05,27,01,24,13.30
2019,05,27,01,25,13.30
2019,05,27,01,26,13.30
2019,05,27,01,27,13.30
2019,05,27,01,28,13.30
2019,05,27,01,29,13.30
2019,05,27,01,30,13.20
2019,05,27,01,31,13.20
2019,05,27,01,32,13.20
2019,05,27,01,33,13.20
2019,05,27,01,34,13.20
2019,05,27,01,35,13.20
2019,05,27,01,36,13.20
2019,05,27,01,37,13.20
2019,05,27,01,38,13.20
2019,05,27,01,39,13.20
2019,05,27,01,40,13.10
2019,05,27,01,41,13.10
2019,05,27,01,42,13.10
2019,05,27,01,43,13.10
2019,05,27,01,44,13.10
2019,05,27,01,45,13.00
2019,05,27,01,46,13.00
2019,05,27,01,47,13.00
2019,05,27,01,48,13.00
2019,05,27,01,49,13.00
2019,05,27,01,50,13.00
2019,05,27,01,51,13.00
2019,05,27,01,52,13.00
2019,05,27,01,53,13.00
2019,05,27,01,54,13.00
2019,05,27,01,55,13.00
2019,05,27,01,56,13.00
2019,05,27,01,57,13.00
2019,05,27,01,58,13.00
2019,05,27,01,59,13.00
2019,05,27,02,00,13.10
2019,05,27,02,01,13.10
2019,05,27,02,02,13.10
2019,05,27,02,03,13.20
2019,05,27,02,04,13.20
2019,05,27,02,05,13.20
2019,05,27,02,06,13.20
2019,05,27,02,07,13.20
2019,05,27,02,08,13.10
2019,05,27,02,09,13.10
2019,05,27,02,10,13.10
2019,05,27,02,11,13.10
2019,05,27,02,12,13.10
2019,05,27,02,13,13.00
2019,05,27,02,14,13.00
2019,05,27,02,15,13.00
2019,05,27,02,16,13.00
2019,05,27,02,17,12.90
2019,05,27,02,18,12.90
2019,05,27,02,19,12.90
2019,05,27,02,20,12.80
2019,05,27,02,21,12.80
2019,05,27,02,22,12.80
2019,05,27,02,23,12.80
2019,05,27,02,24,12.80
2019,05,27,02,25,12.80
2019,05,27,02,26,12.70
2019,05,27,02,27,12.70
2019,05,27,02,28,12.70
2019,05,27,02,29,12.70
2019,05,27,02,30,12.60
2019,05,27,02,31,12.60
2019,05,27,02,32,12.60
2019,05,27,02,33,12.60
2019,05,27,02,34,12.50
2019,05,27,02,35,12.50
2019,05,27,02,36,12.50
2019,05,27,02,37,12.50
2019,05,27,02,38,12.50
2019,05,27,02,39,12.40
2019,05,27,02,40,12.40
2019,05,27,02,41,12.40
2019,05,27,02,42,12.30
2019,05,27,02,43,12.30
2019,05,27,02,44,12.30
2019,05,27,02,45,12.30
2019,05,27,02,46,12.30
2019,05,27,02,47,12.30
2019,05,27,02,48,12.30
2019,05,27,02,49,12.30
2019,05,27,02,50,12.30
2019,05,27,02,51,12.20
2019,05,27,02,52,12.20
2019,05,27,02,53,12.10
2019,05,27,02,54,12.10
2019,05,27,02,55,12.10
2019,05,27,02,56,12.10
2019,05,27,02,57,12.00
2019,05,27,02,58,12.00
2019,05,27,02,59,12.00
2019,05,27,03,00,12.00
2019,05,27,03,01,12.00
2019,05,27,03,02,11.90
2019,05,27,03,03,11.90
2019,05,27,03,04,11.90
2019,05,27,03,05,11.90
2019,05,27,03,06,11.90
2019,05,27,03,07,11.90
2019,05,27,03,08,11.90
2019,05,27,03,09,11.90
2019,05,27,03,10,11.90
2019,05,27,03,11,11.90
2019,05,27,03,12,11.80
2019,05,27,03,13,11.80
2019,05,27,03,14,11.80
2019,05,27,03,15,11.80
2019,05,27,03,16,11.80
2019,05,27,03,17,11.80
2019,05,27,03,18,11.80
2019,05,27,03,19,11.80
2019,05,27,03,20,11.80
2019,05,27,03,21,11.70
2019,05,27,03,22,11.70
2019,05,27,03,23,11.70
2019,05,27,03,24,11.70
2019,05,27,03,25,11.70
2019,05,27,03,26,11.70
2019,05,27,03,27,11.60
2019,05,27,03,28,11.60
2019,05,27,03,29,11.60
2019,05,27,03,30,11.60
2019,05,27,03,31,11.60
2019,05,27,03,32,11.60
2019,05,27,03,33,11.60
2019,05,27,03,34,11.60
2019,05,27,03,35,11.60
2019,05,27,03,36,11.60
2019,05,27,03,37,11.60
2019,05,27,03,38,11.60
2019,05,27,03,39,11.60
2019,05,27,03,40,11.60
2019,05,27,03,41,11.60
2019,05,27,03,42,11.60
2019,05,27,03,43,11.60
2019,05,27,03,44,11.50
2019,05,27,03,45,11.40
2019,05,27,03,46,11.40
2019,05,27,03,47,11.40
2019,05,27,03,48,11.40
2019,05,27,03,49,11.40
2019,05,27,03,50,11.40
2019,05,27,03,51,11.40
2019,05,27,03,52,11.40
2019,05,27,03,53,11.40
2019,05,27,03,54,11.40
2019,05,27,03,55,11.40
2019,05,27,03,56,11.40
2019,05,27,03,57,11.30
2019,05,27,03,58,11.30
2019,05,27,03,59,11.30
2019,05,27,04,00,11.30
2019,05,27,04,01,11.20
2019,05,27,04,02,11.20
2019,05,27,04,03,11.20
2019,05,27,04,04,11.20
2019,05,27,04,05,11.20
2019,05,27,04,06,11.20
2019,05,27,04,07,11.20
2019,05,27,04,08,11.20
2019,05,27,04,09,11.10
2019,05,27,04,10,11.10
2019,05,27,04,11,11.10
2019,05,27,04,12,11.10
2019,05,27,04,13,11.10
2019,05,27,04,14,11.10
2019,05,27,04,15,11.10
2019,05,27,04,16,11.10
2019,05,27,04,17,11.10
2019,05,27,04,18,11.10
2019,05,27,04,19,11.10
2019,05,27,04,20,11.10
2019,05,27,04,21,11.10
2019,05,27,04,22,11.10
2019,05,27,04,23,11.10
2019,05,27,04,24,11.10
2019,05,27,04,25,11.10
2019,05,27,04,26,11.10
2019,05,27,04,27,11.10
2019,05,27,04,28,11.10
2019,05,27,04,29,11.10
2019,05,27,04,30,11.10
2019,05,27,04,31,11.10
2019,05,27,04,32,11.10
2019,05,27,04,33,11.10
2019,05,27,04,34,11.10
2019,05,27,04,35,11.10
2019,05,27,04,36,11.10
2019,05,27,04,37,11.10
2019,05,27,04,38,11.10
2019,05,27,04,39,11.10
2019,05,27,04,40,11.10
2019,05,27,04,41,11.10
2019,05,27,04,42,11.10
2019,05,27,04,43,11.20
2019,05,27,04,44,11.20
2019,05,27,04,45,11.20
2019,05,27,04,46,11.30
2019,05,27,04,47,11.30
2019,05,27,04,48,11.20
2019,05,27,04,49,11.20
2019,05,27,04,50,11.20
2019,05,27,04,51,11.20
2019,05,27,04,52,11.20
2019,05,27,04,53,11.20
2019,05,27,04,54,11.20
2019,05,27,04,55,11.20
2019,05,27,04,56,11.20
2019,05,27,04,57,11.20
2019,05,27,04,58,11.20
2019,05,27,04,59,11.20
2019,05,27,05,00,11.20
2019,05,27,05,01,11.20
2019,05,27,05,02,11.20
2019,05,27,05,03,11.20
2019,05,27,05,04,11.20
2019,05,27,05,05,11.20
2019,05,27,05,06,11.20
2019,05,27,05,07,11.20
2019,05,27,05,08,11.20
2019,05,27,05,09,11.20
2019,05,27,05,10,11.10
2019,05,27,05,11,11.10
2019,05,27,05,12,11.10
2019,05,27,05,13,11.10
2019,05,27,05,14,11.10
2019,05,27,05,15,11.10
2019,05,27,05,16,11.10
2019,05,27,05,17,11.10
2019,05,27,05,18,11.10
2019,05,27,05,19,11.10
2019,05,27,05,20,11.10
2019,05,27,05,21,11.10
2019,05,27,05,22,11.10
2019,05,27,05,23,11.10
2019,05,27,05,24,11.10
2019,05,27,05,25,11.10
2019,05,27,05,26,11.10
2019,05,27,05,27,11.10
2019,05,27,05,28,11.10
2019,05,27,05,29,11.10
2019,05,27,05,30,11.10
2019,05,27,05,31,11.10
2019,05,27,05,32,11.10
2019,05,27,05,33,11.10
2019,05,27,05,34,11.10
2019,05,27,05,35,11.10
2019,05,27,05,36,11.10
2019,05,27,05,37,11.10
2019,05,27,05,38,11.10
2019,05,27,05,39,11.20
2019,05,27,05,40,11.20
2019,05,27,05,41,11.20
2019,05,27,05,42,11.20
2019,05,27,05,43,11.20
2019,05,27,05,44,11.20
2019,05,27,05,45,11.30
2019,05,27,05,46,11.30
2019,05,27,05,47,11.30
2019,05,27,05,48,11.30
2019,05,27,05,49,11.30
2019,05,27,05,50,11.30
2019,05,27,05,51,11.30
2019,05,27,05,52,11.30
2019,05,27,05,53,11.30
2019,05,27,05,54,11.40
2019,05,27,05,55,11.40
2019,05,27,05,56,11.40
2019,05,27,05,57,11.40
2019,05,27,05,58,11.40
2019,05,27,05,59,11.50
2019,05,27,06,00,11.60
2019,05,27,06,01,11.60
2019,05,27,06,02,11.60
2019,05,27,06,03,11.70
2019,05,27,06,04,11.70
2019,05,27,06,05,11.70
2019,05,27,06,06,11.70
2019,05,27,06,07,11.80
2019,05,27,06,08,11.80
2019,05,27,06,09,11.80
2019,05,27,06,10,11.80
2019,05,27,06,11,11.80
2019,05,27,06,12,11.80
2019,05,27,06,13,11.90
2019,05,27,06,14,11.90
2019,05,27,06,15,12.00
2019,05,27,06,16,12.00
2019,05,27,06,17,12.10
2019,05,27,06,18,12.10
2019,05,27,06,19,12.10
2019,05,27,06,20,12.20
2019,05,27,06,21,12.20
2019,05,27,06,22,12.20
2019,05,27,06,23,12.30
2019,05,27,06,24,12.30
2019,05,27,06,25,12.30
2019,05,27,06,26,12.40
2019,05,27,06,27,12.40
2019,05,27,06,28,12.50
2019,05,27,06,29,12.60
2019,05,27,06,30,12.60
2019,05,27,06,31,12.70
2019,05,27,06,32,12.70
2019,05,27,06,33,12.80
2019,05,27,06,34,12.80
2019,05,27,06,35,12.80
2019,05,27,06,36,12.80
2019,05,27,06,37,12.90
2019,05,27,06,38,13.00
2019,05,27,06,39,13.00
2019,05,27,06,40,13.10
2019,05,27,06,41,13.10
2019,05,27,06,42,13.20
2019,05,27,06,43,13.20
2019,05,27,06,44,13.30
2019,05,27,06,45,13.30
2019,05,27,06,46,13.40
2019,05,27,06,47,13.40
2019,05,27,06,48,13.50
2019,05,27,06,49,13.50
2019,05,27,06,50,13.50
2019,05,27,06,51,13.50
2019,05,27,06,52,13.60
2019,05,27,06,53,13.60
2019,05,27,06,54,13.60
2019,05,27,06,55,13.60
2019,05,27,06,56,13.60
2019,05,27,06,57,13.70
2019,05,27,06,58,13.70
2019,05,27,06,59,13.70
2019,05,27,07,00,13.80
2019,05,27,07,01,13.80
2019,05,27,07,02,13.90
2019,05,27,07,03,13.90
2019,05,27,07,04,13.90
2019,05,27,07,05,14.00
2019,05,27,07,06,14.00
2019,05,27,07,07,14.10
2019,05,27,07,08,14.20
2019,05,27,07,09,14.30
2019,05,27,07,10,14.40
2019,05,27,07,11,14.50
2019,05,27,07,12,14.60
2019,05,27,07,13,14.70
2019,05,27,07,14,14.80
2019,05,27,07,15,14.80
2019,05,27,07,16,14.80
2019,05,27,07,17,14.90
2019,05,27,07,18,15.00
2019,05,27,07,19,15.00
2019,05,27,07,20,15.10
2019,05,27,07,21,15.20
2019,05,27,07,22,15.30
2019,05,27,07,23,15.40
2019,05,27,07,24,15.50
2019,05,27,07,25,15.60
2019,05,27,07,26,15.70
2019,05,27,07,27,15.70
2019,05,27,07,28,15.80
2019,05,27,07,29,15.80
2019,05,27,07,30,15.80
2019,05,27,07,31,15.90
2019,05,27,07,32,15.90
2019,05,27,07,33,16.00
2019,05,27,07,34,16.10
2019,05,27,07,35,16.10
2019,05,27,07,36,16.10
2019,05,27,07,37,16.20
2019,05,27,07,38,16.30
2019,05,27,07,39,16.40
2019,05,27,07,40,16.40
2019,05,27,07,41,16.60
2019,05,27,07,42,16.70
2019,05,27,07,43,16.80
2019,05,27,07,44,16.90
2019,05,27,07,45,17.00
2019,05,27,07,46,17.10
2019,05,27,07,47,17.20
2019,05,27,07,48,17.30
2019,05,27,07,49,17.30
2019,05,27,07,50,17.30
2019,05,27,07,51,17.30
2019,05,27,07,52,17.20
2019,05,27,07,53,17.20
2019,05,27,07,54,17.20
2019,05,27,07,55,17.20
2019,05,27,07,56,17.30
2019,05,27,07,57,17.30
2019,05,27,07,58,17.30
2019,05,27,07,59,17.30
2019,05,27,08,00,17.40
2019,05,27,08,01,17.40
2019,05,27,08,02,17.40
2019,05,27,08,03,17.40
2019,05,27,08,04,17.50
2019,05,27,08,05,17.50
2019,05,27,08,06,17.50
2019,05,27,08,07,17.60
2019,05,27,08,08,17.60
2019,05,27,08,09,17.70
2019,05,27,08,10,17.70
2019,05,27,08,11,17.80
2019,05,27,08,12,17.80
2019,05,27,08,13,17.80
2019,05,27,08,14,17.90
2019,05,27,08,15,17.90
2019,05,27,08,16,17.80
2019,05,27,08,17,17.80
2019,05,27,08,18,17.80
2019,05,27,08,19,17.80
2019,05,27,08,20,17.80
2019,05,27,08,21,17.90
2019,05,27,08,22,18.00
2019,05,27,08,23,18.10
2019,05,27,08,24,18.00
2019,05,27,08,25,17.90
2019,05,27,08,26,17.90
2019,05,27,08,27,18.00
2019,05,27,08,28,18.10
2019,05,27,08,29,18.10
2019,05,27,08,30,18.20
2019,05,27,08,31,18.20
2019,05,27,08,32,18.20
2019,05,27,08,33,18.10
2019,05,27,08,34,18.10
2019,05,27,08,35,18.20
2019,05,27,08,36,18.20
2019,05,27,08,37,18.20
2019,05,27,08,38,18.20
2019,05,27,08,39,18.20
2019,05,27,08,40,18.20
2019,05,27,08,41,18.30
2019,05,27,08,42,18.30
2019,05,27,08,43,18.40
2019,05,27,08,44,18.50
2019,05,27,08,45,18.50
2019,05,27,08,46,18.60
2019,05,27,08,47,18.60
2019,05,27,08,48,18.60
2019,05,27,08,49,18.60
2019,05,27,08,50,18.60
2019,05,27,08,51,18.60
2019,05,27,08,52,18.60
2019,05,27,08,53,18.70
2019,05,27,08,54,18.70
2019,05,27,08,55,18.80
2019,05,27,08,56,18.90
2019,05,27,08,57,18.90
2019,05,27,08,58,18.90
2019,05,27,08,59,19.00
2019,05,27,09,00,19.10
2019,05,27,09,01,19.20
2019,05,27,09,02,19.20
2019,05,27,09,03,19.20
2019,05,27,09,04,19.20
2019,05,27,09,05,19.20
2019,05,27,09,06,19.20
2019,05,27,09,07,19.10
2019,05,27,09,08,19.10
2019,05,27,09,09,19.10
2019,05,27,09,10,19.10
2019,05,27,09,11,19.10
2019,05,27,09,12,19.20
2019,05,27,09,13,19.20
2019,05,27,09,14,19.20
2019,05,27,09,15,19.20
2019,05,27,09,16,19.20
2019,05,27,09,17,19.20
2019,05,27,09,18,19.10
2019,05,27,09,19,19.10
2019,05,27,09,20,19.10
2019,05,27,09,21,19.10
2019,05,27,09,22,19.20
2019,05,27,09,23,19.20
2019,05,27,09,24,19.10
2019,05,27,09,25,19.10
2019,05,27,09,26,19.20
2019,05,27,09,27,19.20
2019,05,27,09,28,19.20
2019,05,27,09,29,19.20
2019,05,27,09,30,19.20
2019,05,27,09,31,19.20
2019,05,27,09,32,19.20
2019,05,27,09,33,19.20
2019,05,27,09,34,19.20
2019,05,27,09,35,19.20
2019,05,27,09,36,19.10
2019,05,27,09,37,19.10
2019,05,27,09,38,19.20
2019,05,27,09,39,19.20
2019,05,27,09,40,19.10
2019,05,27,09,41,19.10
2019,05,27,09,42,19.20
2019,05,27,09,43,19.20
2019,05,27,09,44,19.10
2019,05,27,09,45,19.10
2019,05,27,09,46,19.10
2019,05,27,09,47,19.00
2019,05,27,09,48,18.90
2019,05,27,09,49,19.00
2019,05,27,09,50,19.10
2019,05,27,09,51,19.10
2019,05,27,09,52,19.30
2019,05,27,09,53,19.40
2019,05,27,09,54,19.50
2019,05,27,09,55,19.60
2019,05,27,09,56,19.70
2019,05,27,09,57,19.70
2019,05,27,09,58,19.70
2019,05,27,09,59,19.70
2019,05,27,10,00,19.70
2019,05,27,10,01,19.70
2019,05,27,10,02,19.80
2019,05,27,10,03,19.80
2019,05,27,10,04,19.80
2019,05,27,10,05,19.80
2019,05,27,10,06,19.90
2019,05,27,10,07,19.80
2019,05,27,10,08,19.60
2019,05,27,10,09,19.60
2019,05,27,10,10,19.50
2019,05,27,10,11,19.50
2019,05,27,10,12,19.40
2019,05,27,10,13,19.40
2019,05,27,10,14,19.40
2019,05,27,10,15,19.30
2019,05,27,10,16,19.20
2019,05,27,10,17,19.10
2019,05,27,10,18,19.10
2019,05,27,10,19,19.20
2019,05,27,10,20,19.10
2019,05,27,10,21,19.10
2019,05,27,10,22,19.10
2019,05,27,10,23,18.90
2019,05,27,10,24,18.80
2019,05,27,10,25,18.80
2019,05,27,10,26,18.90
2019,05,27,10,27,18.90
2019,05,27,10,28,19.00
2019,05,27,10,29,19.10
2019,05,27,10,30,19.10
2019,05,27,10,31,19.10
2019,05,27,10,32,19.10
2019,05,27,10,33,19.10
2019,05,27,10,34,19.10
2019,05,27,10,35,19.10
2019,05,27,10,36,19.00
2019,05,27,10,37,18.90
2019,05,27,10,38,18.90
2019,05,27,10,39,18.90
2019,05,27,10,40,18.90
2019,05,27,10,41,18.90
2019,05,27,10,42,19.00
2019,05,27,10,43,19.10
2019,05,27,10,44,19.10
2019,05,27,10,45,19.10
2019,05,27,10,46,19.20
2019,05,27,10,47,19.20
2019,05,27,10,48,19.30
2019,05,27,10,49,19.40
2019,05,27,10,50,19.50
2019,05,27,10,51,19.50
2019,05,27,10,52,19.60
2019,05,27,10,53,19.60
2019,05,27,10,54,19.70
2019,05,27,10,55,19.70
2019,05,27,10,56,19.80
2019,05,27,10,57,19.80
2019,05,27,10,58,19.80
2019,05,27,10,59,19.90
2019,05,27,11,00,19.90
2019,05,27,11,01,19.90
2019,05,27,11,02,20.10
2019,05,27,11,03,20.20
2019,05,27,11,04,20.10
2019,05,27,11,05,20.00
2019,05,27,11,06,19.90
2019,05,27,11,07,19.90
2019,05,27,11,08,19.90
2019,05,27,11,09,20.00
2019,05,27,11,10,20.10
2019,05,27,11,11,20.10
2019,05,27,11,12,20.10
2019,05,27,11,13,20.20
2019,05,27,11,14,20.20
2019,05,27,11,15,20.30
2019,05,27,11,16,20.40
2019,05,27,11,17,20.50
2019,05,27,11,18,20.50
2019,05,27,11,19,20.60
2019,05,27,11,20,20.70
2019,05,27,11,21,20.80
2019,05,27,11,22,20.90
2019,05,27,11,23,20.80
2019,05,27,11,24,20.80
2019,05,27,11,25,20.80
2019,05,27,11,26,20.70
2019,05,27,11,27,20.20
2019,05,27,11,28,19.90
2019,05,27,11,29,19.90
2019,05,27,11,30,20.00
2019,05,27,11,31,20.10
2019,05,27,11,32,20.20
2019,05,27,11,33,20.20
2019,05,27,11,34,20.10
2019,05,27,11,35,19.90
2019,05,27,11,36,19.60
2019,05,27,11,37,19.30
2019,05,27,11,38,19.10
2019,05,27,11,39,18.90
2019,05,27,11,40,18.70
2019,05,27,11,41,18.70
2019,05,27,11,42,18.70
2019,05,27,11,43,18.80
2019,05,27,11,44,18.80
2019,05,27,11,45,18.80
2019,05,27,11,46,19.00
2019,05,27,11,47,19.10
2019,05,27,11,48,19.00
2019,05,27,11,49,18.90
2019,05,27,11,50,18.90
2019,05,27,11,51,18.90
2019,05,27,11,52,18.90
2019,05,27,11,53,19.00
2019,05,27,11,54,19.00
2019,05,27,11,55,18.90
2019,05,27,11,56,18.80
2019,05,27,11,57,18.90
2019,05,27,11,58,19.00
2019,05,27,11,59,19.10
2019,05,27,12,00,19.00
2019,05,27,12,01,18.90
2019,05,27,12,02,18.80
2019,05,27,12,03,18.80
2019,05,27,12,04,18.80
2019,05,27,12,05,18.90
2019,05,27,12,06,18.90
2019,05,27,12,07,19.10
2019,05,27,12,08,19.20
2019,05,27,12,09,19.20
2019,05,27,12,10,19.20
2019,05,27,12,11,19.20
2019,05,27,12,12,19.20
2019,05,27,12,13,19.30
2019,05,27,12,14,19.40
2019,05,27,12,15,19.50
2019,05,27,12,16,19.50
2019,05,27,12,17,19.40
2019,05,27,12,18,19.30
2019,05,27,12,19,19.30
2019,05,27,12,20,19.20
2019,05,27,12,21,19.20
2019,05,27,12,22,19.20
2019,05,27,12,23,19.20
2019,05,27,12,24,19.40
2019,05,27,12,25,19.50
2019,05,27,12,26,19.50
2019,05,27,12,27,19.60
2019,05,27,12,28,19.50
2019,05,27,12,29,19.40
2019,05,27,12,30,19.50
2019,05,27,12,31,19.40
2019,05,27,12,32,19.30
2019,05,27,12,33,19.20
2019,05,27,12,34,19.20
2019,05,27,12,35,19.20
2019,05,27,12,36,19.20
2019,05,27,12,37,19.20
2019,05,27,12,38,19.20
2019,05,27,12,39,19.20
2019,05,27,12,40,19.30
2019,05,27,12,41,19.40
2019,05,27,12,42,19.70
2019,05,27,12,43,19.90
2019,05,27,12,44,20.00
2019,05,27,12,45,20.00
2019,05,27,12,46,19.90
2019,05,27,12,47,19.80
2019,05,27,12,48,19.80
2019,05,27,12,49,19.80
2019,05,27,12,50,19.90
2019,05,27,12,51,19.80
2019,05,27,12,52,19.90
2019,05,27,12,53,20.00
2019,05,27,12,54,20.00
2019,05,27,12,55,19.90
2019,05,27,12,56,19.90
2019,05,27,12,57,19.90
2019,05,27,12,58,19.90
2019,05,27,12,59,19.90
2019,05,27,13,00,19.80
2019,05,27,13,01,19.70
2019,05,27,13,02,19.60
2019,05,27,13,03,19.60
2019,05,27,13,04,19.70
2019,05,27,13,05,19.80
2019,05,27,13,06,19.90
2019,05,27,13,07,20.10
2019,05,27,13,08,20.40
2019,05,27,13,09,20.60
2019,05,27,13,10,20.80
2019,05,27,13,11,20.90
2019,05,27,13,12,21.00
2019,05,27,13,13,21.10
2019,05,27,13,14,21.20
2019,05,27,13,15,21.10
2019,05,27,13,16,20.90
2019,05,27,13,17,20.80
2019,05,27,13,18,20.70
2019,05,27,13,19,20.70
2019,05,27,13,20,20.60
2019,05,27,13,21,20.60
2019,05,27,13,22,20.60
2019,05,27,13,23,20.60
2019,05,27,13,24,20.80
2019,05,27,13,25,20.90
2019,05,27,13,26,21.00
2019,05,27,13,27,21.10
2019,05,27,13,28,21.20
2019,05,27,13,29,21.20
2019,05,27,13,30,21.30
2019,05,27,13,31,21.40
2019,05,27,13,32,21.60
2019,05,27,13,33,21.60
2019,05,27,13,34,21.60
2019,05,27,13,35,21.60
2019,05,27,13,36,21.60
2019,05,27,13,37,21.60
2019,05,27,13,38,21.50
2019,05,27,13,39,21.30
2019,05,27,13,40,21.20
2019,05,27,13,41,21.20
2019,05,27,13,42,21.20
2019,05,27,13,43,21.30
2019,05,27,13,44,21.30
2019,05,27,13,45,21.30
2019,05,27,13,46,21.30
2019,05,27,13,47,21.30
2019,05,27,13,48,21.10
2019,05,27,13,49,21.10
2019,05,27,13,50,21.30
2019,05,27,13,51,21.50
2019,05,27,13,52,21.60
2019,05,27,13,53,21.70
2019,05,27,13,54,21.70
2019,05,27,13,55,21.80
2019,05,27,13,56,21.90
2019,05,27,13,57,21.90
2019,05,27,13,58,21.90
2019,05,27,13,59,22.00
2019,05,27,14,00,22.00
2019,05,27,14,01,22.10
2019,05,27,14,02,22.20
2019,05,27,14,03,22.30
2019,05,27,14,04,22.40
2019,05,27,14,05,22.40
2019,05,27,14,06,22.40
2019,05,27,14,07,22.30
2019,05,27,14,08,22.30
2019,05,27,14,09,22.40
2019,05,27,14,10,22.40
2019,05,27,14,11,22.50
2019,05,27,14,12,22.50
2019,05,27,14,13,22.60
2019,05,27,14,14,22.70
2019,05,27,14,15,22.70
2019,05,27,14,16,22.60
2019,05,27,14,17,22.40
2019,05,27,14,18,22.20
2019,05,27,14,19,22.00
2019,05,27,14,20,21.80
2019,05,27,14,21,21.60
2019,05,27,14,22,21.60
2019,05,27,14,23,21.50
2019,05,27,14,24,21.30
2019,05,27,14,25,21.20
2019,05,27,14,26,21.20
2019,05,27,14,27,21.20
2019,05,27,14,28,21.30
2019,05,27,14,29,21.30
2019,05,27,14,30,21.30
2019,05,27,14,31,21.30
2019,05,27,14,32,21.30
2019,05,27,14,33,21.30
2019,05,27,14,34,21.30
2019,05,27,14,35,21.50
2019,05,27,14,36,21.70
2019,05,27,14,37,21.90
2019,05,27,14,38,22.00
2019,05,27,14,39,21.90
2019,05,27,14,40,21.90
2019,05,27,14,41,21.90
2019,05,27,14,42,22.00
2019,05,27,14,43,22.00
2019,05,27,14,44,22.00
2019,05,27,14,45,22.00
2019,05,27,14,46,22.00
2019,05,27,14,47,22.10
2019,05,27,14,48,22.10
2019,05,27,14,49,22.10
2019,05,27,14,50,22.10
2019,05,27,14,51,22.10
2019,05,27,14,52,22.20
2019,05,27,14,53,22.20
2019,05,27,14,54,22.30
2019,05,27,14,55,22.30
2019,05,27,14,56,22.40
2019,05,27,14,57,22.40
2019,05,27,14,58,22.40
2019,05,27,14,59,22.40
2019,05,27,15,00,22.40
2019,05,27,15,01,22.40
2019,05,27,15,02,22.40
2019,05,27,15,03,22.40
2019,05,27,15,04,22.30
2019,05,27,15,05,22.30
2019,05,27,15,06,22.20
2019,05,27,15,07,22.20
2019,05,27,15,08,22.10
2019,05,27,15,09,22.00
2019,05,27,15,10,22.00
2019,05,27,15,11,22.00
2019,05,27,15,12,22.00
2019,05,27,15,13,22.10
2019,05,27,15,14,22.20
2019,05,27,15,15,22.20
2019,05,27,15,16,22.30
2019,05,27,15,17,22.30
2019,05,27,15,18,22.30
2019,05,27,15,19,22.40
2019,05,27,15,20,22.40
2019,05,27,15,21,22.50
2019,05,27,15,22,22.60
2019,05,27,15,23,22.80
2019,05,27,15,24,22.90
2019,05,27,15,25,23.00
2019,05,27,15,26,23.10
2019,05,27,15,27,23.20
2019,05,27,15,28,23.20
2019,05,27,15,29,23.20
2019,05,27,15,30,23.20
2019,05,27,15,31,23.20
2019,05,27,15,32,23.20
2019,05,27,15,33,23.30
2019,05,27,15,34,23.30
2019,05,27,15,35,23.30
2019,05,27,15,36,23.20
2019,05,27,15,37,23.20
2019,05,27,15,38,23.20
2019,05,27,15,39,23.20
2019,05,27,15,40,23.10
2019,05,27,15,41,23.10
2019,05,27,15,42,23.10
2019,05,27,15,43,23.10
2019,05,27,15,44,23.00
2019,05,27,15,45,22.90
2019,05,27,15,46,22.90
2019,05,27,15,47,22.90
2019,05,27,15,48,23.00
2019,05,27,15,49,23.10
2019,05,27,15,50,23.10
2019,05,27,15,51,23.10
2019,05,27,15,52,23.10
2019,05,27,15,53,23.10
2019,05,27,15,54,23.20
2019,05,27,15,55,23.20
2019,05,27,15,56,23.20
2019,05,27,15,57,23.20
2019,05,27,15,58,23.20
2019,05,27,15,59,23.20
2019,05,27,16,00,23.10
2019,05,27,16,01,23.10
2019,05,27,16,02,23.10
2019,05,27,16,03,23.20
2019,05,27,16,04,23.20
2019,05,27,16,05,23.30
2019,05,27,16,06,23.30
2019,05,27,16,07,23.30
2019,05,27,16,08,23.30
2019,05,27,16,09,23.30
2019,05,27,16,10,23.40
2019,05,27,16,11,23.50
2019,05,27,16,12,23.60
2019,05,27,16,13,23.60
2019,05,27,16,14,23.60
2019,05,27,16,15,23.50
2019,05,27,16,16,23.40
2019,05,27,16,17,23.30
2019,05,27,16,18,23.30
2019,05,27,16,19,23.20
2019,05,27,16,20,23.10
2019,05,27,16,21,23.10
2019,05,27,16,22,23.20
2019,05,27,16,23,23.30
2019,05,27,16,24,23.30
2019,05,27,16,25,23.30
2019,05,27,16,26,23.40
2019,05,27,16,27,23.40
2019,05,27,16,28,23.60
2019,05,27,16,29,23.60
2019,05,27,16,30,23.60
2019,05,27,16,31,23.60
2019,05,27,16,32,23.60
2019,05,27,16,33,23.60
2019,05,27,16,34,23.60
2019,05,27,16,35,23.40
2019,05,27,16,36,23.40
2019,05,27,16,37,23.40
2019,05,27,16,38,23.40
2019,05,27,16,39,23.40
2019,05,27,16,40,23.50
2019,05,27,16,41,23.50
2019,05,27,16,42,23.40
2019,05,27,16,43,23.40
2019,05,27,16,44,23.40
2019,05,27,16,45,23.40
2019,05,27,16,46,23.40
2019,05,27,16,47,23.30
2019,05,27,16,48,23.30
2019,05,27,16,49,23.30
2019,05,27,16,50,23.30
2019,05,27,16,51,23.30
2019,05,27,16,52,23.30
2019,05,27,16,53,23.20
2019,05,27,16,54,23.20
2019,05,27,16,55,23.20
2019,05,27,16,56,23.20
2019,05,27,16,57,23.20
2019,05,27,16,58,23.20
2019,05,27,16,59,23.30
2019,05,27,17,00,23.30
2019,05,27,17,01,23.30
2019,05,27,17,02,23.30
2019,05,27,17,03,23.20
2019,05,27,17,04,23.20
2019,05,27,17,05,23.20
2019,05,27,17,06,23.10
2019,05,27,17,07,23.10
2019,05,27,17,08,23.10
2019,05,27,17,09,23.10
2019,05,27,17,10,23.20
2019,05,27,17,11,23.20
2019,05,27,17,12,23.20
2019,05,27,17,13,23.20
2019,05,27,17,14,23.20
2019,05,27,17,15,23.20
2019,05,27,17,16,23.20
2019,05,27,17,17,23.20
2019,05,27,17,18,23.20
2019,05,27,17,19,23.20